This demonstration page uses our WeatherBlox Daily Observations layout. Learn more.

39.92423, -83.80882

Hourly Observations for September 29, 2019

Temp ( °F °C ) Dew Point ( °F °C ) Humidity (%) Winds ( mph kmh ) Pressure ( in mb ) Visibility ( mi km ) Precip ( " mm )
12:56 am 00:56 Mostly Cloudy 67 19.4 65 18.3 93 93 ENE 7 11 30.18 1022 10 16.09344 0 0
1:56 am 01:56 Partly Cloudy 66 18.9 65 18.3 96 96 NE 7 11 30.18 1022 10 16.09344 0 0
2:56 am 02:56 Clear 65 18.3 65 18.3 100 100 ENE 8 13 30.18 1022 10 16.09344 0 0
3:56 am 03:56 Clear 65 18.3 65 18.3 100 100 E 8 13 30.18 1022 10 16.09344 0 0
4:56 am 04:56 Clear 64 17.8 64 17.8 100 100 E 8 13 30.18 1022 10 16.09344 0 0
5:56 am 05:56 Clear 63 17.2 63 17.2 100 100 E 7 11 30.18 1022 10 16.09344 0 0
6:56 am 06:56 Clear 63 17.2 63 17.2 100 100 E 7 11 30.21 1023 10 16.09344 0 0
7:31 am 07:31 Partly Cloudy 63 17 63 17 100 100 E 8 13 30.24 1024 9 14.484096 0 0
7:40 am 07:40 Mostly Cloudy 64 18 64 18 100 100 E 9 15 30.24 1024 9 14.484096 0 0
7:56 am 07:56 Cloudy 64 17.8 64 17.8 100 100 E 10 17 30.21 1023 7 11.265408 0 0
8:56 am 08:56 Cloudy 66 18.9 66 18.9 100 100 E 12 19 30.24 1024 7 11.265408 0 0
9:56 am 09:56 Cloudy 68 20 66 18.9 93 93 E 12 19 30.24 1024 10 16.09344 0 0
10:10 am 10:10 Cloudy 70 21 66 19 88 88 ESE 10 17 30.24 1024 10 16.09344 0 0
10:56 am 10:56 Partly Cloudy 72 22.2 67 19.4 84 84 E 9 15 30.24 1024 10 16.09344 0 0
11:56 am 11:56 Mostly Sunny 74 23.3 67 19.4 79 79 E 9 15 30.21 1023 10 16.09344 0 0
12:56 pm 12:56 Sunny 78 25.6 68 20 71 71 ESE 8 13 30.21 1023 10 16.09344 0 0
1:56 pm 13:56 Sunny 83 28.3 68 20 61 61 SE 7 11 30.18 1022 10 16.09344 0 0
2:56 pm 14:56 Sunny 87 30.6 67 19.4 51 51 SSW 7 11 30.15 1021 10 16.09344 0 0
3:56 pm 15:56 Partly Cloudy 86 30 66 18.9 51 51 SSE 9 15 30.12 1020 10 16.09344 0 0
4:56 pm 16:56 Cloudy with Light Rain 82 27.8 68 20 63 63 NW 25 41 30.12 1020 10 16.09344 0.001 0.001
5:20 pm 17:20 Cloudy with Nearby Thunderstorms 70 21 70 21 100 100 NNW 12 19 30.15 1021 9 14.484096 0.11 2.794
5:35 pm 17:35 Cloudy with Light Rain 72 22 72 22 100 100 Calm 30.15 1021 10 16.09344 0.12 3.048
5:56 pm 17:56 Cloudy 71 21.7 71 21.7 100 100 NNE 5 7 30.15 1021 10 16.09344 0.12 3.048
6:56 pm 18:56 Mostly Cloudy 71 21.7 71 21.7 100 100 ENE 9 15 30.15 1021 10 16.09344 0.001 0.001
7:56 pm 19:56 Mostly Cloudy 70 21.1 70 21.1 100 100 E 7 11 30.15 1021 10 16.09344 0 0
8:56 pm 20:56 Cloudy 70 21.1 70 21.1 100 100 E 7 11 30.15 1021 10 16.09344 0 0
9:56 pm 21:56 Cloudy 69 20.6 69 20.6 100 100 ESE 6 9 30.15 1021 7 11.265408 0 0
10:56 pm 22:56 Mostly Cloudy 69 20.6 69 20.6 100 100 ESE 6 9 30.15 1021 8 12.874752 0 0
11:56 pm 23:56 Mostly Cloudy 70 21.1 70 21.1 100 100 SE 7 11 30.15 1021 7 11.265408 0 0

Powered by AerisWeather